Tracking 19564 objects as of 19-Mar-2019
HD Live streaming from Space Station
objects crossing your sky now

SL-8 R/B

Track SL-8 R/B now!
10-day predictions
SL-8 R/B is classified as:


NORAD ID: 2802
Int'l Code: 1967-045B
Perigee: 705.4 km
Apogee: 801.4 km
Inclination: 74.0 °
Period: 99.7 minutes
Semi major axis: 7124 km
RCS: 4.578 m2 (large)
Launch date: May 15, 1967
Source: Commonwealth of Independent States (former USSR) (CIS)
Launch site: PLESETSK MISSILE AND SPACE COMPLEX (PKMTR)

Note: This is a ROCKET BODY
aabbcc
Your satellite tracking list
Your tracking list is empty




NASA's NSSDC Master Catalog

Two Line Element Set (TLE):
1  2802U 67045B   19077.39335883  .00000021  00000-0  14083-4 0  9993
2  2802  74.0116  56.6848 0067412 316.5514  43.0341 14.43718593721229
Source of the keplerian elements: AFSPC